Year,Month,Day,Hour,Minute,Value (Times are PST for temperature in C)
2009,05,29,00,00,13.70
2009,05,29,00,01,13.60
2009,05,29,00,02,13.60
2009,05,29,00,03,13.50
2009,05,29,00,04,13.50
2009,05,29,00,05,13.40
2009,05,29,00,06,13.40
2009,05,29,00,07,13.40
2009,05,29,00,08,13.30
2009,05,29,00,09,13.30
2009,05,29,00,10,13.30
2009,05,29,00,11,13.30
2009,05,29,00,12,13.30
2009,05,29,00,13,13.30
2009,05,29,00,14,13.30
2009,05,29,00,15,13.30
2009,05,29,00,16,13.30
2009,05,29,00,17,13.30
2009,05,29,00,18,13.30
2009,05,29,00,19,13.30
2009,05,29,00,20,13.30
2009,05,29,00,21,13.30
2009,05,29,00,22,13.30
2009,05,29,00,23,13.30
2009,05,29,00,24,13.30
2009,05,29,00,25,13.30
2009,05,29,00,26,13.30
2009,05,29,00,27,13.30
2009,05,29,00,28,13.30
2009,05,29,00,29,13.30
2009,05,29,00,30,13.30
2009,05,29,00,31,13.30
2009,05,29,00,32,13.30
2009,05,29,00,33,13.30
2009,05,29,00,34,13.30
2009,05,29,00,35,13.30
2009,05,29,00,36,13.30
2009,05,29,00,37,13.20
2009,05,29,00,38,13.20
2009,05,29,00,39,13.20
2009,05,29,00,40,13.20
2009,05,29,00,41,13.10
2009,05,29,00,42,13.10
2009,05,29,00,43,13.10
2009,05,29,00,44,13.10
2009,05,29,00,45,13.00
2009,05,29,00,46,13.00
2009,05,29,00,47,13.00
2009,05,29,00,48,13.00
2009,05,29,00,49,12.90
2009,05,29,00,50,12.90
2009,05,29,00,51,12.90
2009,05,29,00,52,12.90
2009,05,29,00,53,12.90
2009,05,29,00,54,12.90
2009,05,29,00,55,12.90
2009,05,29,00,56,12.90
2009,05,29,00,57,12.90
2009,05,29,00,58,12.90
2009,05,29,00,59,12.90
2009,05,29,01,00,12.90
2009,05,29,01,01,12.90
2009,05,29,01,02,12.90
2009,05,29,01,03,12.90
2009,05,29,01,04,12.80
2009,05,29,01,05,12.80
2009,05,29,01,06,12.80
2009,05,29,01,07,12.80
2009,05,29,01,08,12.80
2009,05,29,01,09,12.80
2009,05,29,01,10,12.70
2009,05,29,01,11,12.70
2009,05,29,01,12,12.70
2009,05,29,01,13,12.60
2009,05,29,01,14,12.60
2009,05,29,01,15,12.60
2009,05,29,01,16,12.50
2009,05,29,01,17,12.50
2009,05,29,01,18,12.50
2009,05,29,01,19,12.50
2009,05,29,01,20,12.40
2009,05,29,01,21,12.40
2009,05,29,01,22,12.40
2009,05,29,01,23,12.40
2009,05,29,01,24,12.30
2009,05,29,01,25,12.30
2009,05,29,01,26,12.30
2009,05,29,01,27,12.30
2009,05,29,01,28,12.30
2009,05,29,01,29,12.30
2009,05,29,01,30,12.30
2009,05,29,01,31,12.30
2009,05,29,01,32,12.30
2009,05,29,01,33,12.20
2009,05,29,01,34,12.20
2009,05,29,01,35,12.20
2009,05,29,01,36,12.20
2009,05,29,01,37,12.20
2009,05,29,01,38,12.20
2009,05,29,01,39,12.20
2009,05,29,01,40,12.20
2009,05,29,01,41,12.10
2009,05,29,01,42,12.10
2009,05,29,01,43,12.10
2009,05,29,01,44,12.10
2009,05,29,01,45,12.10
2009,05,29,01,46,12.00
2009,05,29,01,47,12.00
2009,05,29,01,48,12.00
2009,05,29,01,49,11.90
2009,05,29,01,50,11.90
2009,05,29,01,51,11.90
2009,05,29,01,52,11.90
2009,05,29,01,53,11.90
2009,05,29,01,54,11.80
2009,05,29,01,55,11.80
2009,05,29,01,56,11.80
2009,05,29,01,57,11.80
2009,05,29,01,58,11.80
2009,05,29,01,59,11.80
2009,05,29,02,00,11.80
2009,05,29,02,01,11.80
2009,05,29,02,02,11.80
2009,05,29,02,03,11.80
2009,05,29,02,04,11.70
2009,05,29,02,05,11.70
2009,05,29,02,06,11.70
2009,05,29,02,07,11.70
2009,05,29,02,08,11.70
2009,05,29,02,09,11.70
2009,05,29,02,10,11.70
2009,05,29,02,11,11.70
2009,05,29,02,12,11.70
2009,05,29,02,13,11.70
2009,05,29,02,14,11.60
2009,05,29,02,15,11.60
2009,05,29,02,16,11.60
2009,05,29,02,17,11.60
2009,05,29,02,18,11.60
2009,05,29,02,19,11.60
2009,05,29,02,20,11.60
2009,05,29,02,21,11.60
2009,05,29,02,22,11.60
2009,05,29,02,23,11.50
2009,05,29,02,24,11.40
2009,05,29,02,25,11.40
2009,05,29,02,26,11.40
2009,05,29,02,27,11.40
2009,05,29,02,28,11.40
2009,05,29,02,29,11.40
2009,05,29,02,30,11.40
2009,05,29,02,31,11.40
2009,05,29,02,32,11.40
2009,05,29,02,33,11.40
2009,05,29,02,34,11.40
2009,05,29,02,35,11.40
2009,05,29,02,36,11.40
2009,05,29,02,37,11.40
2009,05,29,02,38,11.40
2009,05,29,02,39,11.40
2009,05,29,02,40,11.40
2009,05,29,02,41,11.30
2009,05,29,02,42,11.30
2009,05,29,02,43,11.30
2009,05,29,02,44,11.30
2009,05,29,02,45,11.30
2009,05,29,02,46,11.20
2009,05,29,02,47,11.20
2009,05,29,02,48,11.20
2009,05,29,02,49,11.20
2009,05,29,02,50,11.20
2009,05,29,02,51,11.20
2009,05,29,02,52,11.10
2009,05,29,02,53,11.10
2009,05,29,02,54,11.20
2009,05,29,02,55,11.20
2009,05,29,02,56,11.20
2009,05,29,02,57,11.20
2009,05,29,02,58,11.30
2009,05,29,02,59,11.30
2009,05,29,03,00,11.30
2009,05,29,03,01,11.30
2009,05,29,03,02,11.30
2009,05,29,03,03,11.30
2009,05,29,03,04,11.40
2009,05,29,03,05,11.40
2009,05,29,03,06,11.40
2009,05,29,03,07,11.40
2009,05,29,03,08,11.40
2009,05,29,03,09,11.40
2009,05,29,03,10,11.40
2009,05,29,03,11,11.40
2009,05,29,03,12,11.40
2009,05,29,03,13,11.40
2009,05,29,03,14,11.30
2009,05,29,03,15,11.30
2009,05,29,03,16,11.30
2009,05,29,03,17,11.30
2009,05,29,03,18,11.20
2009,05,29,03,19,11.20
2009,05,29,03,20,11.20
2009,05,29,03,21,11.20
2009,05,29,03,22,11.10
2009,05,29,03,23,11.10
2009,05,29,03,24,11.10
2009,05,29,03,25,11.10
2009,05,29,03,26,11.10
2009,05,29,03,27,11.10
2009,05,29,03,28,11.10
2009,05,29,03,29,11.10
2009,05,29,03,30,11.10
2009,05,29,03,31,11.10
2009,05,29,03,32,11.10
2009,05,29,03,33,11.10
2009,05,29,03,34,11.10
2009,05,29,03,35,11.10
2009,05,29,03,36,11.10
2009,05,29,03,37,11.10
2009,05,29,03,38,11.00
2009,05,29,03,39,10.90
2009,05,29,03,40,10.90
2009,05,29,03,41,10.90
2009,05,29,03,42,10.90
2009,05,29,03,43,10.90
2009,05,29,03,44,10.90
2009,05,29,03,45,10.90
2009,05,29,03,46,10.80
2009,05,29,03,47,10.80
2009,05,29,03,48,10.80
2009,05,29,03,49,10.80
2009,05,29,03,50,10.70
2009,05,29,03,51,10.70
2009,05,29,03,52,10.70
2009,05,29,03,53,10.70
2009,05,29,03,54,10.70
2009,05,29,03,55,10.70
2009,05,29,03,56,10.70
2009,05,29,03,57,10.70
2009,05,29,03,58,10.70
2009,05,29,03,59,10.80
2009,05,29,04,00,10.80
2009,05,29,04,01,10.80
2009,05,29,04,02,10.80
2009,05,29,04,03,10.80
2009,05,29,04,04,10.80
2009,05,29,04,05,10.80
2009,05,29,04,06,10.80
2009,05,29,04,07,10.80
2009,05,29,04,08,10.80
2009,05,29,04,09,10.80
2009,05,29,04,10,10.80
2009,05,29,04,11,10.80
2009,05,29,04,12,10.80
2009,05,29,04,13,10.80
2009,05,29,04,14,10.80
2009,05,29,04,15,10.80
2009,05,29,04,16,10.80
2009,05,29,04,17,10.80
2009,05,29,04,18,10.80
2009,05,29,04,19,10.80
2009,05,29,04,20,10.80
2009,05,29,04,21,10.80
2009,05,29,04,22,10.80
2009,05,29,04,23,10.80
2009,05,29,04,24,10.80
2009,05,29,04,25,10.80
2009,05,29,04,26,10.80
2009,05,29,04,27,10.80
2009,05,29,04,28,10.80
2009,05,29,04,29,10.80
2009,05,29,04,30,10.80
2009,05,29,04,31,10.80
2009,05,29,04,32,10.80
2009,05,29,04,33,10.80
2009,05,29,04,34,10.80
2009,05,29,04,35,10.80
2009,05,29,04,36,10.80
2009,05,29,04,37,10.80
2009,05,29,04,38,10.70
2009,05,29,04,39,10.70
2009,05,29,04,40,10.70
2009,05,29,04,41,10.70
2009,05,29,04,42,10.70
2009,05,29,04,43,10.60
2009,05,29,04,44,10.60
2009,05,29,04,45,10.60
2009,05,29,04,46,10.60
2009,05,29,04,47,10.60
2009,05,29,04,48,10.60
2009,05,29,04,49,10.60
2009,05,29,04,50,10.60
2009,05,29,04,51,10.60
2009,05,29,04,52,10.60
2009,05,29,04,53,10.60
2009,05,29,04,54,10.60
2009,05,29,04,55,10.60
2009,05,29,04,56,10.60
2009,05,29,04,57,10.60
2009,05,29,04,58,10.60
2009,05,29,04,59,10.60
2009,05,29,05,00,10.60
2009,05,29,05,01,10.60
2009,05,29,05,02,10.60
2009,05,29,05,03,10.60
2009,05,29,05,04,10.60
2009,05,29,05,05,10.60
2009,05,29,05,06,10.60
2009,05,29,05,07,10.60
2009,05,29,05,08,10.60
2009,05,29,05,09,10.60
2009,05,29,05,10,10.60
2009,05,29,05,11,10.60
2009,05,29,05,12,10.60
2009,05,29,05,13,10.60
2009,05,29,05,14,10.60
2009,05,29,05,15,10.50
2009,05,29,05,16,10.40
2009,05,29,05,17,10.40
2009,05,29,05,18,10.40
2009,05,29,05,19,10.40
2009,05,29,05,20,10.40
2009,05,29,05,21,10.40
2009,05,29,05,22,10.40
2009,05,29,05,23,10.40
2009,05,29,05,24,10.40
2009,05,29,05,25,10.40
2009,05,29,05,26,10.40
2009,05,29,05,27,10.40
2009,05,29,05,28,10.40
2009,05,29,05,29,10.40
2009,05,29,05,30,10.40
2009,05,29,05,31,10.40
2009,05,29,05,32,10.40
2009,05,29,05,33,10.40
2009,05,29,05,34,10.40
2009,05,29,05,35,10.40
2009,05,29,05,36,10.40
2009,05,29,05,37,10.40
2009,05,29,05,38,10.40
2009,05,29,05,39,10.40
2009,05,29,05,40,10.40
2009,05,29,05,41,10.40
2009,05,29,05,42,10.40
2009,05,29,05,43,10.40
2009,05,29,05,44,10.40
2009,05,29,05,45,10.40
2009,05,29,05,46,10.40
2009,05,29,05,47,10.40
2009,05,29,05,48,10.40
2009,05,29,05,49,10.40
2009,05,29,05,50,10.30
2009,05,29,05,51,10.30
2009,05,29,05,52,10.30
2009,05,29,05,53,10.30
2009,05,29,05,54,10.30
2009,05,29,05,55,10.30
2009,05,29,05,56,10.40
2009,05,29,05,57,10.40
2009,05,29,05,58,10.40
2009,05,29,05,59,10.40
2009,05,29,06,00,10.40
2009,05,29,06,01,10.40
2009,05,29,06,02,10.40
2009,05,29,06,03,10.40
2009,05,29,06,04,10.40
2009,05,29,06,05,10.40
2009,05,29,06,06,10.40
2009,05,29,06,07,10.40
2009,05,29,06,08,10.40
2009,05,29,06,09,10.50
2009,05,29,06,10,10.60
2009,05,29,06,11,10.60
2009,05,29,06,12,10.60
2009,05,29,06,13,10.60
2009,05,29,06,14,10.60
2009,05,29,06,15,10.60
2009,05,29,06,16,10.70
2009,05,29,06,17,10.70
2009,05,29,06,18,10.80
2009,05,29,06,19,10.80
2009,05,29,06,20,10.90
2009,05,29,06,21,10.90
2009,05,29,06,22,10.90
2009,05,29,06,23,11.00
2009,05,29,06,24,11.10
2009,05,29,06,25,11.10
2009,05,29,06,26,11.10
2009,05,29,06,27,11.10
2009,05,29,06,28,11.10
2009,05,29,06,29,11.20
2009,05,29,06,30,11.30
2009,05,29,06,31,11.30
2009,05,29,06,32,11.40
2009,05,29,06,33,11.40
2009,05,29,06,34,11.60
2009,05,29,06,35,11.60
2009,05,29,06,36,11.70
2009,05,29,06,37,11.80
2009,05,29,06,38,11.90
2009,05,29,06,39,12.00
2009,05,29,06,40,12.20
2009,05,29,06,41,12.30
2009,05,29,06,42,12.40
2009,05,29,06,43,12.50
2009,05,29,06,44,12.70
2009,05,29,06,45,12.80
2009,05,29,06,46,12.90
2009,05,29,06,47,12.90
2009,05,29,06,48,13.00
2009,05,29,06,49,13.00
2009,05,29,06,50,13.10
2009,05,29,06,51,13.10
2009,05,29,06,52,13.10
2009,05,29,06,53,13.10
2009,05,29,06,54,13.20
2009,05,29,06,55,13.20
2009,05,29,06,56,13.20
2009,05,29,06,57,13.30
2009,05,29,06,58,13.30
2009,05,29,06,59,13.30
2009,05,29,07,00,13.40
2009,05,29,07,01,13.50
2009,05,29,07,02,13.50
2009,05,29,07,03,13.50
2009,05,29,07,04,13.60
2009,05,29,07,05,13.60
2009,05,29,07,06,13.70
2009,05,29,07,07,13.70
2009,05,29,07,08,13.70
2009,05,29,07,09,13.80
2009,05,29,07,10,13.90
2009,05,29,07,11,13.90
2009,05,29,07,12,14.00
2009,05,29,07,13,14.00
2009,05,29,07,14,14.10
2009,05,29,07,15,14.20
2009,05,29,07,16,14.20
2009,05,29,07,17,14.30
2009,05,29,07,18,14.40
2009,05,29,07,19,14.40
2009,05,29,07,20,14.50
2009,05,29,07,21,14.50
2009,05,29,07,22,14.40
2009,05,29,07,23,14.40
2009,05,29,07,24,14.40
2009,05,29,07,25,14.40
2009,05,29,07,26,14.40
2009,05,29,07,27,14.50
2009,05,29,07,28,14.50
2009,05,29,07,29,14.60
2009,05,29,07,30,14.70
2009,05,29,07,31,14.80
2009,05,29,07,32,14.90
2009,05,29,07,33,15.00
2009,05,29,07,34,15.00
2009,05,29,07,35,15.10
2009,05,29,07,36,15.10
2009,05,29,07,37,15.10
2009,05,29,07,38,15.20
2009,05,29,07,39,15.20
2009,05,29,07,40,15.20
2009,05,29,07,41,15.30
2009,05,29,07,42,15.30
2009,05,29,07,43,15.30
2009,05,29,07,44,15.30
2009,05,29,07,45,15.30
2009,05,29,07,46,15.30
2009,05,29,07,47,15.30
2009,05,29,07,48,15.40
2009,05,29,07,49,15.40
2009,05,29,07,50,15.40
2009,05,29,07,51,15.50
2009,05,29,07,52,15.60
2009,05,29,07,53,15.60
2009,05,29,07,54,15.70
2009,05,29,07,55,15.80
2009,05,29,07,56,15.90
2009,05,29,07,57,16.00
2009,05,29,07,58,16.10
2009,05,29,07,59,16.10
2009,05,29,08,00,16.20
2009,05,29,08,01,16.30
2009,05,29,08,02,16.30
2009,05,29,08,03,16.40
2009,05,29,08,04,16.40
2009,05,29,08,05,16.50
2009,05,29,08,06,16.60
2009,05,29,08,07,16.60
2009,05,29,08,08,16.70
2009,05,29,08,09,16.70
2009,05,29,08,10,16.80
2009,05,29,08,11,16.90
2009,05,29,08,12,17.00
2009,05,29,08,13,17.10
2009,05,29,08,14,17.10
2009,05,29,08,15,17.10
2009,05,29,08,16,17.00
2009,05,29,08,17,17.00
2009,05,29,08,18,17.00
2009,05,29,08,19,17.00
2009,05,29,08,20,17.00
2009,05,29,08,21,17.10
2009,05,29,08,22,17.10
2009,05,29,08,23,17.20
2009,05,29,08,24,17.20
2009,05,29,08,25,17.30
2009,05,29,08,26,17.30
2009,05,29,08,27,17.40
2009,05,29,08,28,17.50
2009,05,29,08,29,17.50
2009,05,29,08,30,17.60
2009,05,29,08,31,17.60
2009,05,29,08,32,17.70
2009,05,29,08,33,17.70
2009,05,29,08,34,17.80
2009,05,29,08,35,17.90
2009,05,29,08,36,18.00
2009,05,29,08,37,18.20
2009,05,29,08,38,18.30
2009,05,29,08,39,18.40
2009,05,29,08,40,18.50
2009,05,29,08,41,18.50
2009,05,29,08,42,18.50
2009,05,29,08,43,18.50
2009,05,29,08,44,18.40
2009,05,29,08,45,18.30
2009,05,29,08,46,18.20
2009,05,29,08,47,18.10
2009,05,29,08,48,18.10
2009,05,29,08,49,18.00
2009,05,29,08,50,17.90
2009,05,29,08,51,17.90
2009,05,29,08,52,17.80
2009,05,29,08,53,17.80
2009,05,29,08,54,17.70
2009,05,29,08,55,17.70
2009,05,29,08,56,17.70
2009,05,29,08,57,17.70
2009,05,29,08,58,17.80
2009,05,29,08,59,17.80
2009,05,29,09,00,17.90
2009,05,29,09,01,17.90
2009,05,29,09,02,17.90
2009,05,29,09,03,18.10
2009,05,29,09,04,18.20
2009,05,29,09,05,18.20
2009,05,29,09,06,18.40
2009,05,29,09,07,18.40
2009,05,29,09,08,18.50
2009,05,29,09,09,18.60
2009,05,29,09,10,18.60
2009,05,29,09,11,18.60
2009,05,29,09,12,18.60
2009,05,29,09,13,18.60
2009,05,29,09,14,18.60
2009,05,29,09,15,18.60
2009,05,29,09,16,18.70
2009,05,29,09,17,18.80
2009,05,29,09,18,18.80
2009,05,29,09,19,18.90
2009,05,29,09,20,18.90
2009,05,29,09,21,18.90
2009,05,29,09,22,18.90
2009,05,29,09,23,18.90
2009,05,29,09,24,19.00
2009,05,29,09,25,19.10
2009,05,29,09,26,19.10
2009,05,29,09,27,19.10
2009,05,29,09,28,19.10
2009,05,29,09,29,19.10
2009,05,29,09,30,19.20
2009,05,29,09,31,19.20
2009,05,29,09,32,19.20
2009,05,29,09,33,19.20
2009,05,29,09,34,19.10
2009,05,29,09,35,19.10
2009,05,29,09,36,19.10
2009,05,29,09,37,19.10
2009,05,29,09,38,19.10
2009,05,29,09,39,19.10
2009,05,29,09,40,19.10
2009,05,29,09,41,19.10
2009,05,29,09,42,19.10
2009,05,29,09,43,19.10
2009,05,29,09,44,19.10
2009,05,29,09,45,19.10
2009,05,29,09,46,19.10
2009,05,29,09,47,19.20
2009,05,29,09,48,19.30
2009,05,29,09,49,19.30
2009,05,29,09,50,19.40
2009,05,29,09,51,19.40
2009,05,29,09,52,19.50
2009,05,29,09,53,19.60
2009,05,29,09,54,19.60
2009,05,29,09,55,19.50
2009,05,29,09,56,19.60
2009,05,29,09,57,19.50
2009,05,29,09,58,19.50
2009,05,29,09,59,19.50
2009,05,29,10,00,19.50
2009,05,29,10,01,19.50
2009,05,29,10,02,19.50
2009,05,29,10,03,19.50
2009,05,29,10,04,19.50
2009,05,29,10,05,19.50
2009,05,29,10,06,19.50
2009,05,29,10,07,19.50
2009,05,29,10,08,19.50
2009,05,29,10,09,19.40
2009,05,29,10,10,19.30
2009,05,29,10,11,19.20
2009,05,29,10,12,19.10
2009,05,29,10,13,19.10
2009,05,29,10,14,19.10
2009,05,29,10,15,19.10
2009,05,29,10,16,19.10
2009,05,29,10,17,19.10
2009,05,29,10,18,19.10
2009,05,29,10,19,19.10
2009,05,29,10,20,19.10
2009,05,29,10,21,19.10
2009,05,29,10,22,19.20
2009,05,29,10,23,19.30
2009,05,29,10,24,19.40
2009,05,29,10,25,19.50
2009,05,29,10,26,19.60
2009,05,29,10,27,19.70
2009,05,29,10,28,19.80
2009,05,29,10,29,19.90
2009,05,29,10,30,19.90
2009,05,29,10,31,20.10
2009,05,29,10,32,20.20
2009,05,29,10,33,20.20
2009,05,29,10,34,20.30
2009,05,29,10,35,20.30
2009,05,29,10,36,20.30
2009,05,29,10,37,20.20
2009,05,29,10,38,20.20
2009,05,29,10,39,20.20
2009,05,29,10,40,20.10
2009,05,29,10,41,20.10
2009,05,29,10,42,20.20
2009,05,29,10,43,20.20
2009,05,29,10,44,20.20
2009,05,29,10,45,20.20
2009,05,29,10,46,20.20
2009,05,29,10,47,20.20
2009,05,29,10,48,20.20
2009,05,29,10,49,20.20
2009,05,29,10,50,20.30
2009,05,29,10,51,20.30
2009,05,29,10,52,20.40
2009,05,29,10,53,20.40
2009,05,29,10,54,20.50
2009,05,29,10,55,20.50
2009,05,29,10,56,20.60
2009,05,29,10,57,20.70
2009,05,29,10,58,20.70
2009,05,29,10,59,20.80
2009,05,29,11,00,20.80
2009,05,29,11,01,20.80
2009,05,29,11,02,20.90
2009,05,29,11,03,20.90
2009,05,29,11,04,21.00
2009,05,29,11,05,21.00
2009,05,29,11,06,21.00
2009,05,29,11,07,21.00
2009,05,29,11,08,21.00
2009,05,29,11,09,20.90
2009,05,29,11,10,20.90
2009,05,29,11,11,21.00
2009,05,29,11,12,20.90
2009,05,29,11,13,20.80
2009,05,29,11,14,20.80
2009,05,29,11,15,20.90
2009,05,29,11,16,20.90
2009,05,29,11,17,20.90
2009,05,29,11,18,20.90
2009,05,29,11,19,20.80
2009,05,29,11,20,20.70
2009,05,29,11,21,20.70
2009,05,29,11,22,20.70
2009,05,29,11,23,20.70
2009,05,29,11,24,20.70
2009,05,29,11,25,20.70
2009,05,29,11,26,20.60
2009,05,29,11,27,20.60
2009,05,29,11,28,20.60
2009,05,29,11,29,20.70
2009,05,29,11,30,20.80
2009,05,29,11,31,20.80
2009,05,29,11,32,20.70
2009,05,29,11,33,20.70
2009,05,29,11,34,20.70
2009,05,29,11,35,20.80
2009,05,29,11,36,20.90
2009,05,29,11,37,20.90
2009,05,29,11,38,20.90
2009,05,29,11,39,20.90
2009,05,29,11,40,20.80
2009,05,29,11,41,20.70
2009,05,29,11,42,20.60
2009,05,29,11,43,20.50
2009,05,29,11,44,20.40
2009,05,29,11,45,20.30
2009,05,29,11,46,20.20
2009,05,29,11,47,20.20
2009,05,29,11,48,20.20
2009,05,29,11,49,20.20
2009,05,29,11,50,20.20
2009,05,29,11,51,20.30
2009,05,29,11,52,20.30
2009,05,29,11,53,20.30
2009,05,29,11,54,20.20
2009,05,29,11,55,20.10
2009,05,29,11,56,20.10
2009,05,29,11,57,20.10
2009,05,29,11,58,20.10
2009,05,29,11,59,20.10
2009,05,29,12,00,20.20
2009,05,29,12,01,20.40
2009,05,29,12,02,20.60
2009,05,29,12,03,20.80
2009,05,29,12,04,20.80
2009,05,29,12,05,20.80
2009,05,29,12,06,20.90
2009,05,29,12,07,20.90
2009,05,29,12,08,20.80
2009,05,29,12,09,20.80
2009,05,29,12,10,20.80
2009,05,29,12,11,20.80
2009,05,29,12,12,20.80
2009,05,29,12,13,20.70
2009,05,29,12,14,20.60
2009,05,29,12,15,20.50
2009,05,29,12,16,20.40
2009,05,29,12,17,20.20
2009,05,29,12,18,20.10
2009,05,29,12,19,19.90
2009,05,29,12,20,19.90
2009,05,29,12,21,19.90
2009,05,29,12,22,19.80
2009,05,29,12,23,19.80
2009,05,29,12,24,19.90
2009,05,29,12,25,19.90
2009,05,29,12,26,19.90
2009,05,29,12,27,19.80
2009,05,29,12,28,19.80
2009,05,29,12,29,19.80
2009,05,29,12,30,19.70
2009,05,29,12,31,19.70
2009,05,29,12,32,19.60
2009,05,29,12,33,19.40
2009,05,29,12,34,19.40
2009,05,29,12,35,19.40
2009,05,29,12,36,19.40
2009,05,29,12,37,19.40
2009,05,29,12,38,19.50
2009,05,29,12,39,19.70
2009,05,29,12,40,20.00
2009,05,29,12,41,20.30
2009,05,29,12,42,20.50
2009,05,29,12,43,20.80
2009,05,29,12,44,20.90
2009,05,29,12,45,20.80
2009,05,29,12,46,20.60
2009,05,29,12,47,20.50
2009,05,29,12,48,20.40
2009,05,29,12,49,20.30
2009,05,29,12,50,20.30
2009,05,29,12,51,20.20
2009,05,29,12,52,20.20
2009,05,29,12,53,20.10
2009,05,29,12,54,20.10
2009,05,29,12,55,20.20
2009,05,29,12,56,20.20
2009,05,29,12,57,20.30
2009,05,29,12,58,20.30
2009,05,29,12,59,20.40
2009,05,29,13,00,20.40
2009,05,29,13,01,20.40
2009,05,29,13,02,20.20
2009,05,29,13,03,20.20
2009,05,29,13,04,20.00
2009,05,29,13,05,19.90
2009,05,29,13,06,19.70
2009,05,29,13,07,19.60
2009,05,29,13,08,19.40
2009,05,29,13,09,19.30
2009,05,29,13,10,19.20
2009,05,29,13,11,19.00
2009,05,29,13,12,18.80
2009,05,29,13,13,18.60
2009,05,29,13,14,18.60
2009,05,29,13,15,18.30
2009,05,29,13,16,18.00
2009,05,29,13,17,17.80
2009,05,29,13,18,17.70
2009,05,29,13,19,17.70
2009,05,29,13,20,17.70
2009,05,29,13,21,17.80
2009,05,29,13,22,17.80
2009,05,29,13,23,17.70
2009,05,29,13,24,17.50
2009,05,29,13,25,17.40
2009,05,29,13,26,17.50
2009,05,29,13,27,17.50
2009,05,29,13,28,17.40
2009,05,29,13,29,17.40
2009,05,29,13,30,17.60
2009,05,29,13,31,17.80
2009,05,29,13,32,17.90
2009,05,29,13,33,18.10
2009,05,29,13,34,18.30
2009,05,29,13,35,18.30
2009,05,29,13,36,18.40
2009,05,29,13,37,18.30
2009,05,29,13,38,18.30
2009,05,29,13,39,18.10
2009,05,29,13,40,17.90
2009,05,29,13,41,17.80
2009,05,29,13,42,17.90
2009,05,29,13,43,17.90
2009,05,29,13,44,18.00
2009,05,29,13,45,18.20
2009,05,29,13,46,18.20
2009,05,29,13,47,18.20
2009,05,29,13,48,18.20
2009,05,29,13,49,18.20
2009,05,29,13,50,18.20
2009,05,29,13,51,18.20
2009,05,29,13,52,18.20
2009,05,29,13,53,18.20
2009,05,29,13,54,18.10
2009,05,29,13,55,18.00
2009,05,29,13,56,17.90
2009,05,29,13,57,17.70
2009,05,29,13,58,17.40
2009,05,29,13,59,17.10
2009,05,29,14,00,16.80
2009,05,29,14,01,16.50
2009,05,29,14,02,16.20
2009,05,29,14,03,16.00
2009,05,29,14,04,15.90
2009,05,29,14,05,15.80
2009,05,29,14,06,15.70
2009,05,29,14,07,15.70
2009,05,29,14,08,15.90
2009,05,29,14,09,16.10
2009,05,29,14,10,16.10
2009,05,29,14,11,16.10
2009,05,29,14,12,16.10
2009,05,29,14,13,16.10
2009,05,29,14,14,16.10
2009,05,29,14,15,15.90
2009,05,29,14,16,16.10
2009,05,29,14,17,16.30
2009,05,29,14,18,16.40
2009,05,29,14,19,16.40
2009,05,29,14,20,16.40
2009,05,29,14,21,16.40
2009,05,29,14,22,16.40
2009,05,29,14,23,16.40
2009,05,29,14,24,16.40
2009,05,29,14,25,16.60
2009,05,29,14,26,16.80
2009,05,29,14,27,16.90
2009,05,29,14,28,16.90
2009,05,29,14,29,16.90
2009,05,29,14,30,16.80
2009,05,29,14,31,16.80
2009,05,29,14,32,16.80
2009,05,29,14,33,16.90
2009,05,29,14,34,16.90
2009,05,29,14,35,17.00
2009,05,29,14,36,17.20
2009,05,29,14,37,17.40
2009,05,29,14,38,17.60
2009,05,29,14,39,17.80
2009,05,29,14,40,17.90
2009,05,29,14,41,18.10
2009,05,29,14,42,18.10
2009,05,29,14,43,18.20
2009,05,29,14,44,18.20
2009,05,29,14,45,18.10
2009,05,29,14,46,18.10
2009,05,29,14,47,18.00
2009,05,29,14,48,17.90
2009,05,29,14,49,17.90
2009,05,29,14,50,17.80
2009,05,29,14,51,17.70
2009,05,29,14,52,17.70
2009,05,29,14,53,17.50
2009,05,29,14,54,17.30
2009,05,29,14,55,17.40
2009,05,29,14,56,17.50
2009,05,29,14,57,17.60
2009,05,29,14,58,17.90
2009,05,29,14,59,18.10
2009,05,29,15,00,18.30
2009,05,29,15,01,18.50
2009,05,29,15,02,18.60
2009,05,29,15,03,18.60
2009,05,29,15,04,18.60
2009,05,29,15,05,18.60
2009,05,29,15,06,18.50
2009,05,29,15,07,18.60
2009,05,29,15,08,18.60
2009,05,29,15,09,18.60
2009,05,29,15,10,18.60
2009,05,29,15,11,18.50
2009,05,29,15,12,18.40
2009,05,29,15,13,18.20
2009,05,29,15,14,18.20
2009,05,29,15,15,18.30
2009,05,29,15,16,18.30
2009,05,29,15,17,18.40
2009,05,29,15,18,18.40
2009,05,29,15,19,18.60
2009,05,29,15,20,18.80
2009,05,29,15,21,18.90
2009,05,29,15,22,19.10
2009,05,29,15,23,19.40
2009,05,29,15,24,19.60
2009,05,29,15,25,19.80
2009,05,29,15,26,20.00
2009,05,29,15,27,20.10
2009,05,29,15,28,20.30
2009,05,29,15,29,20.40
2009,05,29,15,30,20.50
2009,05,29,15,31,20.70
2009,05,29,15,32,20.80
2009,05,29,15,33,20.90
2009,05,29,15,34,21.00
2009,05,29,15,35,21.20
2009,05,29,15,36,21.40
2009,05,29,15,37,21.70
2009,05,29,15,38,21.80
2009,05,29,15,39,21.90
2009,05,29,15,40,22.00
2009,05,29,15,41,22.20
2009,05,29,15,42,22.30
2009,05,29,15,43,22.40
2009,05,29,15,44,22.70
2009,05,29,15,45,22.90
2009,05,29,15,46,23.10
2009,05,29,15,47,23.20
2009,05,29,15,48,23.40
2009,05,29,15,49,23.60
2009,05,29,15,50,23.90
2009,05,29,15,51,24.10
2009,05,29,15,52,24.40
2009,05,29,15,53,24.50
2009,05,29,15,54,24.50
2009,05,29,15,55,24.50
2009,05,29,15,56,24.50
2009,05,29,15,57,24.50
2009,05,29,15,58,24.60
2009,05,29,15,59,24.70
2009,05,29,16,00,24.70
2009,05,29,16,01,24.70
2009,05,29,16,02,24.60
2009,05,29,16,03,24.60
2009,05,29,16,04,24.60
2009,05,29,16,05,24.60
2009,05,29,16,06,24.60
2009,05,29,16,07,24.70
2009,05,29,16,08,24.70
2009,05,29,16,09,24.70
2009,05,29,16,10,24.70
2009,05,29,16,11,24.70
2009,05,29,16,12,24.80
2009,05,29,16,13,24.80
2009,05,29,16,14,24.80
2009,05,29,16,15,24.80
2009,05,29,16,16,25.00
2009,05,29,16,17,25.10
2009,05,29,16,18,25.30
2009,05,29,16,19,25.40
2009,05,29,16,20,25.40
2009,05,29,16,21,25.50
2009,05,29,16,22,25.50
2009,05,29,16,23,25.50
2009,05,29,16,24,25.50
2009,05,29,16,25,25.60
2009,05,29,16,26,25.70
2009,05,29,16,27,25.70
2009,05,29,16,28,25.70
2009,05,29,16,29,25.70
2009,05,29,16,30,25.60
2009,05,29,16,31,25.60
2009,05,29,16,32,25.50
2009,05,29,16,33,25.50
2009,05,29,16,34,25.50
2009,05,29,16,35,25.60
2009,05,29,16,36,25.50
2009,05,29,16,37,25.50
2009,05,29,16,38,25.50
2009,05,29,16,39,25.50
2009,05,29,16,40,25.40
2009,05,29,16,41,25.40
2009,05,29,16,42,25.40
2009,05,29,16,43,25.40
2009,05,29,16,44,25.40
2009,05,29,16,45,25.40
2009,05,29,16,46,25.40
2009,05,29,16,47,25.40
2009,05,29,16,48,25.40
2009,05,29,16,49,25.40
2009,05,29,16,50,25.40
2009,05,29,16,51,25.30
2009,05,29,16,52,25.30
2009,05,29,16,53,25.20
2009,05,29,16,54,25.10
2009,05,29,16,55,25.10
2009,05,29,16,56,24.90
2009,05,29,16,57,24.90
2009,05,29,16,58,24.90
2009,05,29,16,59,24.90
2009,05,29,17,00,24.90
2009,05,29,17,01,24.80
2009,05,29,17,02,24.70
2009,05,29,17,03,24.60
2009,05,29,17,04,24.70
2009,05,29,17,05,24.60
2009,05,29,17,06,24.60
2009,05,29,17,07,24.60
2009,05,29,17,08,24.50
2009,05,29,17,09,24.40
2009,05,29,17,10,24.40
2009,05,29,17,11,24.20
2009,05,29,17,12,24.10
2009,05,29,17,13,24.10
2009,05,29,17,14,24.10
2009,05,29,17,15,24.10
2009,05,29,17,16,24.10
2009,05,29,17,17,24.10
2009,05,29,17,18,24.10
2009,05,29,17,19,24.10